Tracking 30970 objects as of 3-Jul-2025
HD Live streaming from Space Station
objects crossing your sky now

ATLAS CENTAUR 2 DEB

Track ATLAS CENTAUR 2 DEB now!
10-day predictions


NORAD ID: 2886
Int'l Code: 1963-047K
Perigee: 670.2 km
Apogee: 1,638.6 km
Inclination: 29.9 °
Period: 108.3 minutes
Semi major axis: 7525 km
RCS: 0.0127 m2 (small)
Launch date: November 27, 1963
Source: United States (US)
Launch site: AIR FORCE EASTERN TEST RANGE (AFETR)

Note: This is SATELLITE DEBRIS
Your satellite tracking list
Your tracking list is empty




NASA's NSSDC Master Catalog

Two Line Element Set (TLE):
1 02886U 63047K   25183.81758504  .00000224  00000-0  11579-3 0  9995
2 02886  29.8712  97.6651 0643413  40.2956 324.3535 13.29875335829679
Source of the keplerian elements: AFSPC